Location: Newark
(40.4500°N, 15.1500°E)
Time: 13:07:26
(UTC+00:00)

UKube-1 - Visible Passes

Search period start: 18 February 2020 00:00
Search period end: 28 February 2020 00:00
Orbit: 612 x 619 km, 98.5° (Epoch: 18 February)

Date Brightness Start Highest point End Pass type
(mag) Time Alt. Az. Time Alt. Az. Time Alt. Az.
18 Feb ? 02:32:14 10° ENE 02:33:01 10° ENE 02:33:50 10° NE visible
18 Feb ? 04:04:03 10° S 04:08:21 76° WSW 04:12:40 10° NNW visible
18 Feb ? 17:27:04 10° N 17:31:05 39° WNW 17:35:04 10° SW visible
19 Feb ? 02:46:22 10° E 02:48:51 15° ENE 02:51:20 10° NNE visible
19 Feb ? 04:20:14 10° S 04:24:24 49° W 04:28:36 10° NNW visible
19 Feb ? 17:43:23 10° N 17:47:00 27° WNW 17:50:36 10° SW visible
20 Feb ? 03:01:27 10° ESE 03:04:43 22° ENE 03:08:00 10° NNE visible
20 Feb ? 04:36:36 10° SSW 04:40:28 33° W 04:44:23 10° NNW visible
20 Feb ? 17:59:53 10° NNW 18:02:54 19° WNW 18:05:55 10° WSW visible
21 Feb ? 03:16:51 10° SE 03:20:37 31° ENE 03:24:25 10° N visible
21 Feb ? 04:53:14 10° SSW 04:56:36 22° W 04:59:59 10° NW visible
21 Feb ? 18:16:42 10° NW 18:18:45 13° WNW 18:20:48 10° W visible
22 Feb ? 03:32:28 10° SE 03:36:34 45° ENE 03:40:41 10° N visible
22 Feb ? 05:10:15 10° SW 05:12:45 15° W 05:15:16 10° WNW visible
23 Feb ? 03:48:16 10° SSE 03:52:32 69° ENE 03:56:50 10° N visible
23 Feb ? 17:11:04 10° N 17:15:19 62° WNW 17:19:32 10° SSW visible
24 Feb ? 04:04:15 10° S 04:08:33 79° WSW 04:12:52 10° NNW visible
24 Feb ? 17:27:14 10° N 17:31:17 41° WNW 17:35:18 10° SW visible
25 Feb ? 02:46:42 10° E 02:49:04 15° ENE 02:51:26 10° NNE visible
25 Feb ? 04:20:24 10° S 04:24:35 51° W 04:28:48 10° NNW visible
25 Feb ? 17:43:32 10° N 17:47:12 28° WNW 17:50:52 10° SW visible
26 Feb ? 03:01:43 10° ESE 03:04:55 21° ENE 03:08:08 10° NNE visible
26 Feb ? 04:36:45 10° SSW 04:40:40 34° W 04:44:36 10° NNW visible
26 Feb ? 18:00:00 10° NNW 18:03:05 20° WNW 18:06:11 10° WSW visible
27 Feb ? 03:17:05 10° SE 03:20:49 30° ENE 03:24:34 10° N visible
27 Feb ? 04:53:21 10° SSW 04:56:47 23° W 05:00:13 10° NW visible
27 Feb ? 18:16:46 10° NNW 18:18:57 14° WNW 18:21:08 10° W visible
